Regional Weather Roundup
Issued by NWS

Home | Current Version | Previous Version | Text Only | Print | Product List | Glossary Off
Versions: 1 2 3 4 5 6 7 8 9 10 11 12 13 14 15 16 17 18 19 20 21 22 23 24 25 26 27 28 29 30 31 32 33 34 35 36 37 38 39 40 41 42 43 44 45 46 47 48 49 50

000
ASUS43 KOAX 210710
RWRNE

WEATHER ROUNDUP FOR NEBRASKA
NATIONAL WEATHER SERVICE OMAHA NE
200 AM CDT THU AUG 21 2014

NOTES: SATELLITE DATA IS BEING USED TO AUGMENT CLOUD COVER ABOVE
       12000 FEET.
       "FAIR" INDICATES FEW OR NO CLOUDS BELOW 12,000 FEET WITH NO
       SIGNIFICANT WEATHER AND/OR OBSTRUCTIONS TO VISIBILITY.

  * THESE STATIONS DO NOT REPORT WEATHER SUCH AS RAIN...SNOW OR FOG.

NEZ001>004-019>022-054>056-210800-
NEBRASKA PANHANDLE

CITY           SKY/WX    TMP DP  RH WIND       PRES   REMARKS
SCOTTSBLUFF    PTCLDY    68  51  54 NW6       29.90F
ALLIANCE       MOCLDY    69  55  60 SW8       29.87F
CHADRON        CLEAR     61  52  72 VRB3      29.87R
KIMBALL        MOCLDY    63  55  74 W6        29.97S
SIDNEY         MOCLDY    63  59  87 S3        29.92F
$$

NEZ057>060-069>072-079>082-210800-
SOUTHWEST NEBRASKA

CITY           SKY/WX    TMP DP  RH WIND       PRES   REMARKS
NORTH PLATTE   CLOUDY    68  61  78 CALM      29.82R
IMPERIAL       PTCLDY    67  63  87 CALM      29.86R
LEXINGTON      LGT RAIN  70  67  89 NW6       29.83R
MCCOOK         MOCLDY    72  63  73 NE8       29.81R
OGALLALA       PTCLDY    65  62  89 SE3       29.84F
$$

NEZ005>010-023>029-035>040-094-210800-
NORTH CENTRAL NEBRASKA

CITY           SKY/WX    TMP DP  RH WIND       PRES   REMARKS
VALENTINE      PTCLDY    71  60  68 W3        29.78R
AINSWORTH      PTCLDY    71  66  85 S8        29.78R
BROKEN BOW     TSTM      72  62  71 SW25G38   29.80S
O`NEILL        MOCLDY    75  73  93 SW5       29.74R
ORD            CLOUDY    77  65  66 SW14G22   29.75F
THEDFORD       MOCLDY    74  62  66 SW8       29.82R
$$

NEZ041-046>049-061>064-073>077-083>087-210800-
SOUTH CENTRAL NEBRASKA

CITY           SKY/WX    TMP DP  RH WIND       PRES   REMARKS
GRAND ISLAND   LGT RAIN  79  66  64 SW20G29   29.80R
AURORA         CLOUDY    79  71  74 W9G20     29.78R
HASTINGS       TSTM      75  60  59 W9G17     29.84R
HEBRON         CLOUDY    78  64  61 S10G17    29.78F
HOLDREGE       LGT RAIN  72  67  84 CALM      29.80S
KEARNEY *      CLOUDY    70  61  73 E15G21    29.81S
YORK           CLOUDY    77 N/A N/A S16       29.77S
$$

NEZ011>018-030>034-042>045-210800-
NORTHEAST NEBRASKA

CITY           SKY/WX    TMP DP  RH WIND       PRES   REMARKS
NORFOLK        CLOUDY    79  69  71 S13       29.72F
ALBION         CLOUDY    77  68  73 S7        29.76R
BLAIR          PTCLDY    81  70  71 S14       29.78S
COLUMBUS *     CLOUDY    64  64 100 S13G18    29.76S
FREMONT        MOCLDY    81  69  68 SE14      29.76F
TEKAMAH        MOCLDY    78  73  84 SE10      29.75F
WAYNE          CLOUDY    76  73  90 S9        29.73F
$$

NEZ050>053-065>068-078-088>093-210800-
SOUTHEAST NEBRASKA

CITY           SKY/WX    TMP DP  RH WIND       PRES   REMARKS
LINCOLN        MOCLDY    82  67  60 S16       29.77S
OMAHA EPPLEY   MOCLDY    81  71  71 S14       29.78F
BEATRICE       MOCLDY    82  66  59 S15G22    29.80S
FALLS CITY     PTCLDY    80  68  66 S13       29.82F
NEBRASKA CITY  PTCLDY    78  68  72 S13       29.81S
PLATTSMOUTH    PTCLDY    78  70  75 SE10G16   29.80F
$$

NEZ044-045-051>053-067-210800-
OMAHA AREA

CITY           SKY/WX    TMP DP  RH WIND       PRES   REMARKS
OMAHA EPPLEY   MOCLDY    81  71  71 S14       29.78F
BLAIR          PTCLDY    81  70  71 S14       29.78S
FREMONT        MOCLDY    81  69  68 SE14      29.76F
MILLARD        PTCLDY    81  71  71 SE8       29.77F
OFFUTT AFB     PTCLDY    79  76  90 SE9       29.78F
PLATTSMOUTH    PTCLDY    78  70  75 SE10G16   29.80F
WAHOO          FAIR      77  69  76 S7        29.77S
$$


USA.gov is the U.S. government's official web portal to all federal, state and local government web resources and services.